Location: Goettingen
(51.5300°N, 9.9433°E)
Time: 13:39:19
(UTC+01:00)

ISS - Pass Details

Date: 21 January 2021
Orbit: 418 x 421 km, 51.6° (Epoch: 24 January)

Event Time Altitude Azimuth Distance (km) Brightness Sun altitude
Rises 17:53:04 0° 199° (SSW) 2,359 0.7 -9.6°
Reaches altitude 10° 17:55:52 10° 174° (S) 1,500 -0.8 -10.0°
Maximum altitude 17:57:45 14° 140° (SE) 1,267 -1.5 -10.3°
Enters shadow 17:59:28 11° 108° (ESE) 1,464 -1.5 -10.5°
